(75003) = 1999 TO286 = 2000 YQ67

Discovered at Socorro on 1999-10-10 by LINEAR.

Orbit

Orbit type: Main Belt

Note: WebGL enabled browser required.

epoch2024-03-31.0
epoch JD2460400.5
perihelion date2023-01-30.21491
perihelion JD2459974.71491
argument of perihelion (°)287.80417
ascending node (°)269.08453
inclination (°)4.86880
eccentricity0.1679377
perihelion distance (AU)1.9505495
Tisserand w.r.t. Jupiter3.5
ΔV w.r.t. Earth (km/sec)8.8
semimajor axis (AU)2.3442349
mean anomaly (°)116.92102
mean daily motion (°/day)0.27460100
aphelion distance (AU)2.738
period (years)3.59
P-vector [x]-0.95343579
P-vector [y]-0.23444718
P-vector [z]-0.18972274
Q-vector [x]0.28941040
Q-vector [y]-0.88821863
Q-vector [z]-0.35680426
absolute magnitude15.5
phase slope0.15
uncertainty0
referenceMPEC 2024-C115
observations used2083
oppositions18
arc length (days)8709
first opposition used1999
last opposition used2023
residual rms (arc-secs)0.61
perturbers coarse indicatorM-v
perturbers precise indicator003Ek
first observation date used1999-10-01.0
last observation date used2023-08-05.0
computer nameMPCLINUX
JD of orbit computation2456670.751571
perihelion JD uncertainty (days)4.2272E-05
argument of perihelion uncertainty (°)5.8424E-05
ascending node uncertainty (°)5.7451E-05
inclination uncertainty (°)3.7392E-06
eccentricity uncertainty 4.5574E-08
perihelion distance uncertainty (AU)1.0549E-07
Minimum Orbit Intersection Distances (in AU)
for orbit epoch: 2460200.5, reference: E2024-CB5
Mercury1.52518
Venus1.2391
Earth0.95439
Mars0.36588
Jupiter2.24549
Saturn6.50981
Uranus16.4229
Neptune27.1218

Observations

2099 total observations over interval: 1999 10 01.37236 – 2023 08 05.842557
These data are available for download (format description).

Date (UT) J2000 RA J2000 Dec Magn Location Ref
1999 10 01.37236 01 19 32.49 +16 05 40.7 19.2 R 703 – Catalina Sky Survey MPS 25034
1999 10 01.38478 01 19 31.69 +16 05 39.8 18.7 R 703 – Catalina Sky Survey MPS 25035
1999 10 01.39719 01 19 31.05 +16 05 35.2 19.2 R 703 – Catalina Sky Survey MPS 25035
1999 10 01.40961 01 19 30.42 +16 05 30.9 19.5 R 703 – Catalina Sky Survey MPS 25035
1999 10 10.20327 01 11 17.49 +15 17 23.7 19.2   704 – Lincoln Laboratory ETS, New Mexico MPS 15486
1999 10 10.21943 01 11 16.55 +15 17 18.0 19.8   704 – Lincoln Laboratory ETS, New Mexico MPS 15486
1999 10 10.23448 01 11 15.64 +15 17 12.9 19.8   704 – Lincoln Laboratory ETS, New Mexico MPS 15486
1999 10 10.24960 01 11 14.69 +15 17 07.0 19.6   704 – Lincoln Laboratory ETS, New Mexico MPS 15486
1999 10 10.26564 01 11 13.83 +15 17 00.8 19.3   704 – Lincoln Laboratory ETS, New Mexico MPS 15486
1999 10 20.19364 01 01 47.58 +14 12 51.9 19.6   704 – Lincoln Laboratory ETS, New Mexico MPS 15486
1999 10 20.20927 01 01 46.60 +14 12 46.9 19.2   704 – Lincoln Laboratory ETS, New Mexico MPS 15486
1999 10 20.22482 01 01 45.77 +14 12 39.7 19.5   704 – Lincoln Laboratory ETS, New Mexico MPS 15486
1999 10 20.24038 01 01 44.81 +14 12 33.7 19.1   704 – Lincoln Laboratory ETS, New Mexico MPS 15486
2000 11 27.43728 09 34 37.97 +11 28 08.9 18.6   704 – Lincoln Laboratory ETS, New Mexico MPS 25436
2000 11 27.45196 09 34 38.68 +11 28 02.4 19.2   704 – Lincoln Laboratory ETS, New Mexico MPS 25436
2000 11 27.46672 09 34 39.43 +11 27 56.2 19.1   704 – Lincoln Laboratory ETS, New Mexico MPS 25436
2000 11 27.48141 09 34 40.10 +11 27 49.3 19.3   704 – Lincoln Laboratory ETS, New Mexico MPS 25436
2000 11 27.49609 09 34 40.81 +11 27 43.8 19.8   704 – Lincoln Laboratory ETS, New Mexico MPS 25436
2000 12 22.40378 09 47 41.23 +08 54 17.7 19.2 R 699 – Lowell Observatory-LONEOS MPS 25436
2000 12 22.42740 09 47 41.49 +08 54 12.5   699 – Lowell Observatory-LONEOS MPS 25436
2000 12 22.45097 09 47 41.55 +08 54 04.4   699 – Lowell Observatory-LONEOS MPS 25436
2000 12 22.47725 09 47 41.92 +08 53 56.8   699 – Lowell Observatory-LONEOS MPS 25436
2000 12 28.38581 09 48 10.09 +08 27 32.3 18.6   704 – Lincoln Laboratory ETS, New Mexico MPS 24227
2000 12 28.40093 09 48 10.01 +08 27 27.6 19.0   704 – Lincoln Laboratory ETS, New Mexico MPS 24227
2000 12 28.41604 09 48 09.92 +08 27 24.5 19.3   704 – Lincoln Laboratory ETS, New Mexico MPS 24227
2000 12 28.43116 09 48 09.95 +08 27 20.4 18.9   704 – Lincoln Laboratory ETS, New Mexico MPS 24227
2000 12 28.44626 09 48 09.91 +08 27 16.5 18.3   704 – Lincoln Laboratory ETS, New Mexico MPS 24227
2001 01 03.38256 09 47 29.06 +08 05 52.9 19.0   704 – Lincoln Laboratory ETS, New Mexico MPS 24227
2001 01 03.39798 09 47 28.78 +08 05 50.0 19.4   704 – Lincoln Laboratory ETS, New Mexico MPS 24227
2001 01 03.41286 09 47 28.53 +08 05 47.4 18.8   704 – Lincoln Laboratory ETS, New Mexico MPS 24227
2001 01 03.42786 09 47 28.31 +08 05 45.0 19.3   704 – Lincoln Laboratory ETS, New Mexico MPS 24227
2001 01 03.44297 09 47 28.02 +08 05 42.6 19.1   704 – Lincoln Laboratory ETS, New Mexico MPS 24227
2001 01 20.33772 09 39 14.87 +07 36 35.3 17.9   704 – Lincoln Laboratory ETS, New Mexico MPS 25436
2001 01 20.35334 09 39 14.07 +07 36 35.3 18.1   704 – Lincoln Laboratory ETS, New Mexico MPS 25436
2001 01 20.37000 09 39 13.32 +07 36 35.0 17.9   704 – Lincoln Laboratory ETS, New Mexico MPS 25436
2001 01 20.38524 09 39 12.59 +07 36 33.7 18.0   704 – Lincoln Laboratory ETS, New Mexico MPS 25436
2001 01 20.40061 09 39 11.82 +07 36 33.9 18.3   704 – Lincoln Laboratory ETS, New Mexico MPS 25436
2001 01 29.30894 09 31 35.18 +07 40 52.9 17.6   704 – Lincoln Laboratory ETS, New Mexico MPS 25436
2001 01 29.32528 09 31 34.26 +07 40 54.8 18.3   704 – Lincoln Laboratory ETS, New Mexico MPS 25436
2001 01 29.34009 09 31 33.30 +07 40 55.7 17.3   704 – Lincoln Laboratory ETS, New Mexico MPS 25436
2001 01 29.35480 09 31 32.42 +07 40 56.6 17.2   704 – Lincoln Laboratory ETS, New Mexico MPS 25436
2001 01 29.36987 09 31 31.47 +07 40 58.0 17.7   704 – Lincoln Laboratory ETS, New Mexico MPS 25436
2001 01 31.32134 09 29 38.64 +07 43 36.5 18.2   704 – Lincoln Laboratory ETS, New Mexico MPS 25436
2001 01 31.33626 09 29 37.66 +07 43 37.0 17.8   704 – Lincoln Laboratory ETS, New Mexico MPS 25436
2001 01 31.35119 09 29 36.74 +07 43 38.4 17.8   704 – Lincoln Laboratory ETS, New Mexico MPS 25437
2001 01 31.36611 09 29 35.83 +07 43 39.7 17.9   704 – Lincoln Laboratory ETS, New Mexico MPS 25437
2001 01 31.38103 09 29 34.92 +07 43 41.0 17.9   704 – Lincoln Laboratory ETS, New Mexico MPS 25437
2001 02 17.29710 09 12 11.31 +08 24 51.1 17.8   704 – Lincoln Laboratory ETS, New Mexico MPS 26534
2001 02 17.31155 09 12 10.40 +08 24 53.5 18.2   704 – Lincoln Laboratory ETS, New Mexico MPS 26534
2001 02 17.32541 09 12 09.50 +08 24 56.3 18.3   704 – Lincoln Laboratory ETS, New Mexico MPS 26534
2001 02 17.33933 09 12 08.67 +08 24 58.6 18.7   704 – Lincoln Laboratory ETS, New Mexico MPS 26534
2001 02 17.35458 09 12 07.67 +08 25 01.7 18.0   704 – Lincoln Laboratory ETS, New Mexico MPS 26534
2001 02 19.25531 09 10 15.49 +08 30 59.9 17.9   704 – Lincoln Laboratory ETS, New Mexico MPS 26534
2001 02 19.27261 09 10 14.37 +08 31 03.5 18.5   704 – Lincoln Laboratory ETS, New Mexico MPS 26534
2001 02 19.29447 09 10 13.08 +08 31 06.9 18.1   704 – Lincoln Laboratory ETS, New Mexico MPS 26534
2001 02 19.31454 09 10 11.86 +08 31 09.9 18.7   704 – Lincoln Laboratory ETS, New Mexico MPS 26534
2001 02 19.32846 09 10 11.00 +08 31 13.7 18.1   704 – Lincoln Laboratory ETS, New Mexico MPS 26534
2001 03 02.18696 09 00 53.45 +09 06 06.2 17.5 R 699 – Lowell Observatory-LONEOS MPS 27606
2001 03 02.21421 09 00 52.21 +09 06 12.4   699 – Lowell Observatory-LONEOS MPS 27606
2001 03 02.24152 09 00 51.03 +09 06 17.3   699 – Lowell Observatory-LONEOS MPS 27606
2001 03 02.26894 09 00 49.73 +09 06 22.6   699 – Lowell Observatory-LONEOS MPS 27606
2001 03 15.15237 08 54 22.30 +09 41 44.2 18.0 R 699 – Lowell Observatory-LONEOS MPS 27606
2001 03 15.18048 08 54 21.79 +09 41 47.9   699 – Lowell Observatory-LONEOS MPS 27606
2001 03 15.20870 08 54 21.23 +09 41 52.1   699 – Lowell Observatory-LONEOS MPS 27606
2001 03 15.23694 08 54 20.72 +09 41 55.7   699 – Lowell Observatory-LONEOS MPS 27607
2001 04 01.12955 08 54 59.88 +10 05 03.0 18.2   704 – Lincoln Laboratory ETS, New Mexico MPS 27607
2001 04 01.14473 08 55 00.18 +10 05 02.1 18.6   704 – Lincoln Laboratory ETS, New Mexico MPS 27607
2001 04 01.17474 08 55 00.75 +10 05 02.6 18.8   704 – Lincoln Laboratory ETS, New Mexico MPS 27607
2001 04 01.18928 08 55 01.07 +10 05 03.0 19.1   704 – Lincoln Laboratory ETS, New Mexico MPS 27607
2001 04 15.23072 09 03 04.38 +09 57 40.6 20.1   608 – Haleakala-AMOS MPS 29462
2001 04 15.24152 09 03 04.89 +09 57 39.3 19.8   608 – Haleakala-AMOS MPS 29462
2001 04 15.25224 09 03 05.37 +09 57 38.8 19.9   608 – Haleakala-AMOS MPS 29462
2001 04 17.13641 09 04 37.14 +09 54 41.0 18.9   704 – Lincoln Laboratory ETS, New Mexico MPS 29462
2001 04 17.15080 09 04 37.73 +09 54 38.3 19.2   704 – Lincoln Laboratory ETS, New Mexico MPS 29462
2001 04 17.16435 09 04 38.38 +09 54 36.5 19.3   704 – Lincoln Laboratory ETS, New Mexico MPS 29462
2001 04 17.19046 09 04 39.70 +09 54 34.9 19.6   704 – Lincoln Laboratory ETS, New Mexico MPS 29462
2001 04 22.13361 09 09 08.45 +09 44 34.1 18.6   704 – Lincoln Laboratory ETS, New Mexico MPS 29948
2001 04 22.14691 09 09 09.10 +09 44 32.1 18.9   704 – Lincoln Laboratory ETS, New Mexico MPS 29948
2001 04 22.16019 09 09 09.89 +09 44 29.6 18.8   704 – Lincoln Laboratory ETS, New Mexico MPS 29948
2001 04 22.17346 09 09 10.67 +09 44 26.4 18.6   704 – Lincoln Laboratory ETS, New Mexico MPS 29948
2001 04 22.18685 09 09 11.32 +09 44 24.6 18.3   704 – Lincoln Laboratory ETS, New Mexico MPS 29948
2002 06 09.51079 22 03 37.03 -07 53 56.6 21.0   608 – Haleakala-AMOS MPS 56954
2002 06 09.52133 22 03 37.31 -07 53 53.3 21.0   608 – Haleakala-AMOS MPS 56954
2002 06 09.53185 22 03 37.56 -07 53 50.4 20.4   608 – Haleakala-AMOS MPS 56954
2002 07 14.31271 22 00 57.91 -06 22 05.6 19.5   704 – Lincoln Laboratory ETS, New Mexico MPS 58760
2002 07 14.32607 22 00 57.54 -06 22 05.0 19.3   704 – Lincoln Laboratory ETS, New Mexico MPS 58760
